EB1DWF Weather Reports


Display with metric or nautical units.
time (UTC)temp
F
wind
direction
speed
MPH
gust
MPH
rain 1hr
in
rain 24hr
in
rain mn
in
humidity
%
barometer
mb
20260504060216 49 360 0.0 1.0 0.00 2.04 0.00 100 1004.5
20260504050217 48 90 0.0 1.0 0.00 2.04 0.00 100 1004.1
20260504045613 48 315 0.0 1.0 0.00 2.04 0.00 100 1004.3
20260504044716 48 334 0.0 1.0 0.00 2.04 0.00 100 1004.2
20260504043603 48 65 0.0 1.0 0.00 2.04 0.00 100 1004.3
20260504042703 48 75 0.0 1.0 0.00 2.04 0.00 100 1004.2
20260504042018 48 0 0.0 0.0 0.00 2.04 0.00 100 1004.3
20260504041115 48 90 0.0 1.0 0.00 2.04 0.00 100 1004.3
20260504040217 48 90 0.0 1.0 0.00 2.04 0.00 100 1004.2
20260504035614 48 0 0.0 0.0 0.00 2.04 0.00 100 1004.3
20260504034716 47 157 0.0 1.0 0.00 2.04 0.00 100 1004.3
20260504033603 47 0 0.0 0.0 0.00 2.04 0.00 100 1004.3
20260504032703 47 138 0.0 1.0 0.00 2.04 0.00 100 1004.4
20260504032013 47 131 0.0 1.0 0.00 2.04 0.00 100 1004.5
20260504031116 47 130 0.0 2.0 0.00 2.04 0.00 100 1004.4
20260504030003 47 0 0.0 0.0 0.00 2.04 0.00 100 1004.4
20260504025403 47 0 0.0 0.0 0.00 2.04 0.00 100 1004.3
20260504024503 47 24 0.0 1.0 0.00 2.04 0.00 100 1004.4
20260504023603 47 360 0.0 1.0 0.00 2.04 0.00 100 1004.4
20260504022916 47 0 0.0 0.0 0.00 2.04 0.00 100 1004.4
20260504022014 47 346 0.0 1.0 0.00 2.04 0.00 100 1004.4
20260504020903 47 37 0.0 1.0 0.00 2.04 0.00 100 1004.4
20260504020003 47 9 0.0 3.0 0.00 2.04 0.00 100 1004.5
20260504015615 47 2 0.0 3.0 0.00 2.04 0.00 100 1004.4
20260504014717 47 5 0.0 3.0 0.00 2.04 0.00 100 1004.4
20260504013603 48 315 0.0 1.0 0.00 2.04 0.00 100 1004.3
20260504012917 47 326 0.0 2.0 0.00 2.04 0.00 100 1004.4
20260504011803 47 344 0.0 4.0 0.00 2.04 0.00 100 1004.4
20260504011117 47 344 1.0 4.0 0.00 2.04 0.00 100 1004.5
20260504010214 47 3 2.0 4.0 0.00 2.04 0.00 100 1004.5
20260504005616 47 15 1.0 4.0 0.00 2.04 0.00 100 1004.5
20260504004713 47 360 2.0 4.0 0.00 2.04 0.00 100 1004.5
20260504003604 48 1 1.0 3.0 0.00 2.04 0.00 100 1004.5
20260504002703 48 346 0.0 1.0 0.00 2.04 0.00 100 1004.5
20260504002015 48 345 0.0 1.0 0.00 2.04 0.00 100 1004.6
20260504000903 48 359 0.0 4.0 0.00 2.04 0.00 100 1004.6
20260504000003 48 8 2.0 4.0 0.00 2.04 0.00 100 1004.7
20260503235616 48 17 0.0 4.0 0.00 2.04 0.00 100 1004.6
20260503234714 48 8 0.0 3.0 0.00 2.04 0.00 100 1004.6
20260503233603 49 298 0.0 3.0 0.00 2.04 0.00 100 1004.5
20260503232703 49 334 0.0 4.0 0.00 2.04 0.00 100 1004.5
20260503231803 50 231 0.0 1.0 0.00 2.04 0.00 97 1004.4
20260503231113 50 0 0.0 0.0 0.00 2.04 0.00 97 1004.3
20260503230004 50 45 0.0 1.0 0.00 2.04 0.00 97 1004.4
20260503225617 51 0 0.0 0.0 0.00 2.04 0.00 96 1004.4
20260503224714 51 0 0.0 0.0 0.00 2.04 0.00 96 1004.4
20260503223817 51 0 0.0 0.0 0.00 2.04 0.00 96 1004.5
20260503222703 51 279 0.0 2.0 0.00 2.04 0.00 96 1004.5
20260503222016 51 277 0.0 3.0 0.00 2.04 0.00 95 1004.5
20260503221114 51 10 2.0 3.0 0.00 2.04 0.00 94 1004.5
20260503220004 52 68 2.0 3.0 0.00 2.04 0.00 92 1004.6
20260503215403 52 283 0.0 2.0 0.00 2.04 0.00 91 1004.6
20260503214715 52 270 0.0 4.0 0.00 2.04 0.00 91 1004.6
20260503213603 52 154 0.0 3.0 0.00 2.04 0.00 92 1004.5
20260503212703 52 282 0.0 3.0 0.00 2.04 0.00 92 1004.5
20260503211803 52 283 0.0 4.0 0.00 2.04 0.00 91 1004.5
20260503210903 52 293 0.0 3.0 0.00 2.04 0.00 91 1004.5
20260503210003 52 305 0.0 2.0 0.00 2.04 0.00 91 1004.5
20260503205613 52 306 0.0 1.0 0.00 2.04 0.00 91 1004.3
20260503204716 52 350 0.0 1.0 0.00 2.04 0.00 91 1004.3
20260503203813 52 306 0.0 2.0 0.00 2.04 0.00 92 1004.1
20260503202915 52 270 0.0 3.0 0.00 2.04 0.00 93 1004.1
20260503201803 52 294 0.0 4.0 0.00 2.04 0.00 94 1003.9
20260503201115 52 16 0.0 4.0 0.00 2.04 0.00 93 1003.9
20260503200003 52 313 1.0 4.0 0.00 2.04 0.00 93 1003.9
20260503195404 53 290 0.0 2.0 0.00 2.04 0.00 92 1003.7
20260503194504 53 44 0.0 4.0 0.00 2.04 0.00 91 1003.5
20260503193813 53 35 2.0 4.0 0.00 2.04 0.00 90 1003.6
20260503192703 54 74 4.0 7.0 0.00 2.04 0.00 87 1003.3
20260503191803 54 215 4.0 6.0 0.00 2.04 0.00 84 1003.4
20260503191116 55 264 2.0 8.0 0.00 2.04 0.00 82 1003.2
20260503190213 57 238 4.0 8.0 0.00 2.04 0.00 81 1003.0
20260503185614 57 91 2.0 7.0 0.00 2.04 0.00 80 1002.9
20260503184717 57 147 3.0 7.0 0.00 2.04 0.00 80 1002.9
20260503183814 58 155 4.0 8.0 0.00 2.04 0.00 79 1002.7
20260503182917 58 130 4.0 8.0 0.00 2.04 0.00 79 1002.6
20260503182014 58 319 3.0 8.0 0.00 2.04 0.00 79 1002.7
20260503180903 59 158 3.0 4.0 0.00 2.04 0.00 78 1002.7
20260503180213 59 30 2.0 4.0 0.00 2.04 0.00 78 1002.9
20260503175403 58 133 4.0 8.0 0.00 2.04 0.00 78 1002.9
20260503174717 59 112 2.0 5.0 0.00 2.04 0.00 78 1002.8
20260503173815 58 113 0.0 5.0 0.00 2.04 0.00 77 1002.8
20260503172917 58 316 1.0 4.0 0.00 2.04 0.00 80 1002.8
20260503171804 59 97 4.0 8.0 0.00 2.04 0.00 79 1002.7
20260503170904 60 13 4.0 6.0 0.00 2.04 0.00 75 1002.5
20260503140216 58 4 2.0 8.0 2.04 2.04 0.00 79 1002.7
20260503130903 68 12 0.0 6.0 0.00 0.00 0.00 65 1002.1
20260503130217 65 345 2.0 6.0 0.00 0.00 0.00 67 1002.2
20260503110213 70 144 0.0 8.0 0.00 0.00 0.00 49 1003.3
20260503100213 66 67 3.0 5.0 0.00 0.00 0.00 62 1003.4
20260503080903 57 45 0.0 5.0 0.00 0.00 0.00 84 1004.1
20260503072913 57 324 1.0 3.0 0.00 0.00 0.00 92 1004.2
20260503072016 56 43 0.0 4.0 0.00 0.00 0.00 95 1004.1
20260503071113 56 327 2.0 3.0 0.00 0.00 0.00 96 1004.1
20260503070215 55 90 0.0 1.0 0.00 0.00 0.00 97 1004.1